Time,TemperatureF,DewpointF,PressureIn,WindDirection,WindDirectionDegrees,WindSpeedMPH,WindSpeedGustMPH,Humidity,HourlyPrecipIn,Conditions,Clouds,dailyrainin,SoftwareType,DateUTC
2013-05-06 00:05:00,51.4,48.4,30.09,North,3,3.0,6.0,84,0.00,,,0.00,meteohub,2013-05-06 05:05:00,
2013-05-06 00:10:00,51.4,48.4,30.09,North,0,0.0,6.0,84,0.00,,,0.00,meteohub,2013-05-06 05:10:00,
2013-05-06 00:15:00,51.4,48.2,30.09,North,353,3.0,6.0,84,0.00,,,0.00,meteohub,2013-05-06 05:15:00,
2013-05-06 00:20:00,51.3,48.2,30.09,North,0,0.0,5.0,84,0.00,,,0.00,meteohub,2013-05-06 05:20:00,
2013-05-06 00:25:00,51.3,48.2,30.09,North,0,0.0,5.0,84,0.00,,,0.00,meteohub,2013-05-06 05:25:00,
2013-05-06 00:30:00,51.1,48.0,30.09,North,0,5.0,5.0,84,0.00,,,0.00,meteohub,2013-05-06 05:30:00,
2013-05-06 00:35:00,51.1,47.8,30.09,NNE,15,3.0,5.0,84,0.00,,,0.00,meteohub,2013-05-06 05:35:00,
2013-05-06 00:40:00,50.9,48.0,30.09,NNE,15,0.0,5.0,84,0.00,,,0.00,meteohub,2013-05-06 05:40:00,
2013-05-06 00:45:00,50.7,48.2,30.09,NNE,15,0.0,5.0,85,0.00,,,0.00,meteohub,2013-05-06 05:45:00,
2013-05-06 00:50:00,50.5,48.2,30.09,NNE,15,0.0,4.0,85,0.00,,,0.00,meteohub,2013-05-06 05:50:00,
2013-05-06 00:55:00,50.4,48.0,30.09,NNE,15,4.0,4.0,85,0.00,,,0.00,meteohub,2013-05-06 05:55:00,
2013-05-06 01:00:00,50.4,48.0,30.09,NNE,15,2.0,4.0,85,0.00,,,0.00,meteohub,2013-05-06 06:00:00,
2013-05-06 01:05:00,50.4,48.0,30.09,NNE,15,4.0,4.0,85,0.00,,,0.00,meteohub,2013-05-06 06:05:00,
2013-05-06 01:11:00,50.4,47.8,30.09,North,0,3.0,4.0,85,0.00,,,0.00,meteohub,2013-05-06 06:11:00,
2013-05-06 01:16:00,50.4,47.8,30.09,NNW,340,4.0,4.0,85,0.00,,,0.00,meteohub,2013-05-06 06:16:00,
2013-05-06 01:21:00,50.4,47.8,30.09,North,0,4.0,4.0,85,0.00,,,0.00,meteohub,2013-05-06 06:21:00,
2013-05-06 01:26:00,50.2,47.8,30.09,North,0,3.0,4.0,85,0.00,,,0.00,meteohub,2013-05-06 06:26:00,
2013-05-06 01:31:00,50.2,48.0,30.09,North,0,3.0,4.0,86,0.00,,,0.00,meteohub,2013-05-06 06:31:00,
2013-05-06 01:36:00,50.2,48.0,30.09,North,0,3.0,4.0,86,0.00,,,0.00,meteohub,2013-05-06 06:36:00,
2013-05-06 01:41:00,50.2,47.8,30.09,North,357,3.0,5.0,86,0.00,,,0.00,meteohub,2013-05-06 06:41:00,
2013-05-06 01:46:00,50.2,48.2,30.09,North,357,4.0,5.0,87,0.00,,,0.00,meteohub,2013-05-06 06:46:00,
2013-05-06 01:51:00,50.2,48.2,30.09,North,0,4.0,5.0,87,0.00,,,0.00,meteohub,2013-05-06 06:51:00,
2013-05-06 01:56:00,50.2,48.4,30.09,North,357,4.0,6.0,88,0.00,,,0.00,meteohub,2013-05-06 06:56:00,
2013-05-06 02:01:00,50.2,48.4,30.09,NNE,27,6.0,6.0,88,0.00,,,0.00,meteohub,2013-05-06 07:01:00,
2013-05-06 02:06:00,50.2,48.4,30.09,North,4,0.0,6.0,88,0.00,,,0.00,meteohub,2013-05-06 07:06:00,
2013-05-06 02:11:00,50.2,48.6,30.09,North,7,4.0,8.0,89,0.00,,,0.00,meteohub,2013-05-06 07:11:00,
2013-05-06 02:16:00,50.2,48.7,30.09,North,3,4.0,8.0,90,0.00,,,0.00,meteohub,2013-05-06 07:16:00,
2013-05-06 02:22:00,50.2,48.7,30.09,NNE,19,4.0,8.0,90,0.00,,,0.00,meteohub,2013-05-06 07:22:00,
2013-05-06 02:27:00,50.0,48.6,30.09,North,5,6.0,6.0,90,0.00,,,0.00,meteohub,2013-05-06 07:27:00,
2013-05-06 02:32:00,50.0,48.7,30.09,North,11,5.0,8.0,90,0.00,,,0.00,meteohub,2013-05-06 07:32:00,
2013-05-06 02:37:00,50.0,49.1,30.09,North,8,5.0,8.0,91,0.00,,,0.00,meteohub,2013-05-06 07:37:00,
2013-05-06 02:42:00,50.0,48.9,30.09,North,1,3.0,8.0,91,0.00,,,0.00,meteohub,2013-05-06 07:42:00,
2013-05-06 02:47:00,50.0,48.9,30.09,North,0,3.0,6.0,91,0.00,,,0.00,meteohub,2013-05-06 07:47:00,
2013-05-06 02:52:00,50.0,48.9,30.09,NNE,16,3.0,6.0,91,0.00,,,0.00,meteohub,2013-05-06 07:52:00,
2013-05-06 02:57:00,50.0,48.9,30.09,North,11,2.0,6.0,91,0.00,,,0.00,meteohub,2013-05-06 07:57:00,
2013-05-06 03:02:00,49.8,48.9,30.09,NNE,14,3.0,5.0,91,0.00,,,0.00,meteohub,2013-05-06 08:02:00,
2013-05-06 03:07:00,49.8,48.9,30.09,North,4,2.0,6.0,91,0.00,,,0.00,meteohub,2013-05-06 08:07:00,
2013-05-06 03:12:00,49.8,48.9,30.09,North,4,0.0,6.0,91,0.00,,,0.00,meteohub,2013-05-06 08:12:00,
2013-05-06 03:17:00,49.8,48.9,30.06,North,5,6.0,6.0,91,0.00,,,0.00,meteohub,2013-05-06 08:17:00,
2013-05-06 03:22:00,49.8,48.9,30.06,NE,34,3.0,6.0,91,0.00,,,0.00,meteohub,2013-05-06 08:22:00,
2013-05-06 03:27:00,49.8,48.9,30.06,NE,37,6.0,6.0,91,0.00,,,0.00,meteohub,2013-05-06 08:27:00,
2013-05-06 03:32:00,49.8,49.1,30.06,NNE,17,0.0,6.0,92,0.00,,,0.00,meteohub,2013-05-06 08:32:00,
2013-05-06 03:37:00,49.6,49.1,30.09,NE,38,4.0,6.0,92,0.00,,,0.00,meteohub,2013-05-06 08:37:00,
2013-05-06 03:42:00,49.6,49.1,30.09,North,11,4.0,6.0,92,0.00,,,0.00,meteohub,2013-05-06 08:42:00,
2013-05-06 03:47:00,49.6,49.1,30.09,NNE,18,3.0,5.0,92,0.00,,,0.00,meteohub,2013-05-06 08:47:00,
2013-05-06 03:52:00,49.6,49.1,30.09,North,3,6.0,6.0,92,0.00,,,0.00,meteohub,2013-05-06 08:52:00,
2013-05-06 03:57:00,49.6,48.9,30.09,North,7,4.0,6.0,92,0.00,,,0.00,meteohub,2013-05-06 08:57:00,
2013-05-06 04:02:00,49.5,48.9,30.09,NNE,12,6.0,6.0,92,0.00,,,0.00,meteohub,2013-05-06 09:02:00,
2013-05-06 04:07:00,49.5,48.6,30.09,NNE,21,4.0,6.0,91,0.00,,,0.00,meteohub,2013-05-06 09:07:00,
2013-05-06 04:12:00,49.5,48.6,30.09,NE,36,3.0,6.0,91,0.00,,,0.00,meteohub,2013-05-06 09:12:00,
2013-05-06 04:17:00,49.5,48.6,30.09,NNE,25,3.0,6.0,91,0.00,,,0.00,meteohub,2013-05-06 09:17:00,
2013-05-06 04:22:00,49.5,48.4,30.09,NNE,15,4.0,6.0,91,0.00,,,0.00,meteohub,2013-05-06 09:22:00,
2013-05-06 04:27:00,49.3,48.4,30.09,North,7,4.0,5.0,91,0.00,,,0.00,meteohub,2013-05-06 09:27:00,
2013-05-06 04:32:00,49.3,48.4,30.09,NNE,18,0.0,5.0,91,0.00,,,0.00,meteohub,2013-05-06 09:32:00,
2013-05-06 04:37:00,49.3,48.4,30.09,NNE,18,0.0,5.0,91,0.00,,,0.00,meteohub,2013-05-06 09:37:00,
2013-05-06 04:42:00,49.3,47.8,30.09,NNE,27,3.0,6.0,90,0.00,,,0.00,meteohub,2013-05-06 09:42:00,
2013-05-06 04:47:00,49.1,47.8,30.09,NNE,24,5.0,6.0,90,0.00,,,0.00,meteohub,2013-05-06 09:47:00,
2013-05-06 04:52:00,49.1,47.8,30.09,NNE,23,0.0,6.0,90,0.00,,,0.00,meteohub,2013-05-06 09:52:00,
2013-05-06 04:57:00,49.1,47.8,30.09,North,8,0.0,6.0,90,0.00,,,0.00,meteohub,2013-05-06 09:57:00,
2013-05-06 05:02:00,48.9,47.7,30.09,NNE,23,0.0,7.0,90,0.00,,,0.00,meteohub,2013-05-06 10:02:00,
2013-05-06 05:07:00,48.9,47.7,30.09,North,5,0.0,7.0,90,0.00,,,0.00,meteohub,2013-05-06 10:07:00,
2013-05-06 05:12:00,48.9,47.7,30.09,NNE,13,0.0,7.0,90,0.00,,,0.00,meteohub,2013-05-06 10:12:00,
2013-05-06 05:17:00,48.7,48.0,30.09,North,4,2.0,6.0,91,0.00,,,0.00,meteohub,2013-05-06 10:17:00,
2013-05-06 05:22:00,48.7,47.8,30.09,NNE,20,3.0,6.0,91,0.00,,,0.00,meteohub,2013-05-06 10:22:00,
2013-05-06 05:27:00,48.7,47.8,30.09,NNW,331,5.0,5.0,91,0.00,,,0.00,meteohub,2013-05-06 10:27:00,
2013-05-06 05:32:00,48.7,47.8,30.09,North,6,0.0,6.0,91,0.00,,,0.00,meteohub,2013-05-06 10:32:00,
2013-05-06 05:37:00,48.7,47.8,30.09,North,6,3.0,6.0,91,0.00,,,0.00,meteohub,2013-05-06 10:37:00,
2013-05-06 05:42:00,48.7,47.7,30.09,North,353,6.0,6.0,91,0.00,,,0.00,meteohub,2013-05-06 10:42:00,
2013-05-06 05:47:00,48.6,47.7,30.09,North,9,4.0,6.0,91,0.00,,,0.00,meteohub,2013-05-06 10:47:00,
2013-05-06 05:52:00,48.6,48.0,30.09,NNE,15,0.0,6.0,92,0.00,,,0.00,meteohub,2013-05-06 10:52:00,
2013-05-06 05:57:00,48.6,48.0,30.09,North,3,3.0,6.0,92,0.00,,,0.00,meteohub,2013-05-06 10:57:00,
2013-05-06 06:02:00,48.6,48.0,30.09,North,10,3.0,6.0,92,0.00,,,0.00,meteohub,2013-05-06 11:02:00,
2013-05-06 06:07:00,48.6,47.8,30.09,NNE,12,6.0,6.0,92,0.00,,,0.00,meteohub,2013-05-06 11:07:00,
2013-05-06 06:12:00,48.6,47.5,30.09,NE,38,3.0,8.0,91,0.00,,,0.00,meteohub,2013-05-06 11:12:00,
2013-05-06 06:17:00,48.4,47.7,30.09,NE,41,3.0,8.0,91,0.00,,,0.00,meteohub,2013-05-06 11:17:00,
2013-05-06 06:22:00,48.4,47.5,30.09,NE,35,3.0,8.0,91,0.00,,,0.00,meteohub,2013-05-06 11:22:00,
2013-05-06 06:27:00,48.4,47.5,30.09,NE,42,3.0,5.0,91,0.00,,,0.00,meteohub,2013-05-06 11:27:00,
2013-05-06 06:32:00,48.4,47.5,30.09,North,4,0.0,6.0,91,0.00,,,0.00,meteohub,2013-05-06 11:32:00,
2013-05-06 06:37:00,48.4,47.5,30.09,NNE,13,3.0,6.0,91,0.00,,,0.00,meteohub,2013-05-06 11:37:00,
2013-05-06 06:42:00,48.4,47.5,30.09,NNE,26,2.0,6.0,91,0.00,,,0.00,meteohub,2013-05-06 11:42:00,
2013-05-06 06:47:00,48.4,47.5,30.09,NNE,15,0.0,6.0,91,0.00,,,0.00,meteohub,2013-05-06 11:47:00,
2013-05-06 06:52:00,48.4,47.3,30.09,NNE,23,0.0,5.0,91,0.00,,,0.00,meteohub,2013-05-06 11:52:00,
2013-05-06 06:57:00,48.4,47.3,30.09,NNE,29,4.0,4.0,91,0.00,,,0.00,meteohub,2013-05-06 11:57:00,
2013-05-06 07:02:00,48.2,47.5,30.09,NW,326,4.0,6.0,91,0.00,,,0.00,meteohub,2013-05-06 12:02:00,
2013-05-06 07:07:00,48.2,47.5,30.09,NW,321,4.0,6.0,91,0.00,,,0.00,meteohub,2013-05-06 12:07:00,
2013-05-06 07:12:00,48.2,47.5,30.09,North,7,4.0,6.0,91,0.00,,,0.00,meteohub,2013-05-06 12:12:00,
2013-05-06 07:17:00,48.4,47.3,30.12,NNE,23,6.0,6.0,91,0.00,,,0.00,meteohub,2013-05-06 12:17:00,
2013-05-06 07:22:00,48.4,47.3,30.12,North,350,4.0,8.0,91,0.00,,,0.00,meteohub,2013-05-06 12:22:00,
2013-05-06 07:27:00,48.4,47.5,30.12,North,353,4.0,8.0,91,0.00,,,0.00,meteohub,2013-05-06 12:27:00,
2013-05-06 07:32:00,48.4,47.1,30.12,North,9,3.0,8.0,90,0.00,,,0.00,meteohub,2013-05-06 12:32:00,
2013-05-06 07:37:00,48.6,47.3,30.12,NNE,12,6.0,6.0,90,0.00,,,0.00,meteohub,2013-05-06 12:37:00,
2013-05-06 07:42:00,48.6,47.3,30.12,NNW,338,6.0,6.0,90,0.00,,,0.00,meteohub,2013-05-06 12:42:00,
2013-05-06 07:47:00,48.6,47.1,30.12,NNW,336,5.0,6.0,89,0.00,,,0.00,meteohub,2013-05-06 12:47:00,
2013-05-06 07:52:00,48.6,47.3,30.12,North,11,4.0,6.0,89,0.00,,,0.00,meteohub,2013-05-06 12:52:00,
2013-05-06 07:57:00,48.6,47.5,30.12,NNE,15,6.0,6.0,89,0.00,,,0.00,meteohub,2013-05-06 12:57:00,
2013-05-06 08:02:00,48.7,46.9,30.12,North,0,8.0,8.0,88,0.00,,,0.00,meteohub,2013-05-06 13:02:00,
2013-05-06 08:07:00,48.7,46.9,30.12,North,353,6.0,8.0,88,0.00,,,0.00,meteohub,2013-05-06 13:07:00,
2013-05-06 08:12:00,48.9,46.8,30.12,North,11,3.0,8.0,87,0.00,,,0.00,meteohub,2013-05-06 13:12:00,
2013-05-06 08:17:00,48.9,47.3,30.12,NNE,18,8.0,8.0,88,0.00,,,0.00,meteohub,2013-05-06 13:17:00,
2013-05-06 08:22:00,49.1,46.9,30.12,North,4,5.0,8.0,87,0.00,,,0.00,meteohub,2013-05-06 13:22:00,
2013-05-06 08:27:00,49.1,46.9,30.12,North,357,4.0,8.0,86,0.00,,,0.00,meteohub,2013-05-06 13:27:00,
2013-05-06 08:32:00,49.1,46.9,30.12,NNE,12,8.0,8.0,86,0.00,,,0.00,meteohub,2013-05-06 13:32:00,
2013-05-06 08:38:00,49.1,46.6,30.12,North,357,8.0,8.0,85,0.00,,,0.00,meteohub,2013-05-06 13:38:00,
2013-05-06 08:43:00,49.3,46.8,30.12,NNE,16,4.0,8.0,85,0.00,,,0.00,meteohub,2013-05-06 13:43:00,
2013-05-06 08:48:00,49.5,47.1,30.12,NE,38,4.0,8.0,85,0.00,,,0.00,meteohub,2013-05-06 13:48:00,
2013-05-06 08:53:00,49.6,47.1,30.12,NNE,16,5.0,8.0,85,0.00,,,0.00,meteohub,2013-05-06 13:53:00,
2013-05-06 08:58:00,49.6,47.3,30.12,NNE,17,4.0,8.0,85,0.00,,,0.00,meteohub,2013-05-06 13:58:00,
2013-05-06 09:03:00,50.5,46.9,30.12,NNE,15,6.0,6.0,84,0.00,,,0.00,meteohub,2013-05-06 14:03:00,
2013-05-06 09:08:00,52.9,46.9,30.12,NNE,21,5.0,8.0,84,0.00,,,0.00,meteohub,2013-05-06 14:08:00,
2013-05-06 09:13:00,53.6,47.1,30.12,NNE,25,3.0,8.0,84,0.00,,,0.00,meteohub,2013-05-06 14:13:00,
2013-05-06 09:18:00,52.7,47.3,30.12,NE,42,3.0,8.0,84,0.00,,,0.00,meteohub,2013-05-06 14:18:00,
2013-05-06 09:23:00,51.6,47.1,30.12,NE,37,6.0,8.0,83,0.00,,,0.00,meteohub,2013-05-06 14:23:00,
2013-05-06 09:28:00,50.7,47.1,30.12,NE,44,4.0,8.0,83,0.00,,,0.00,meteohub,2013-05-06 14:28:00,
2013-05-06 09:33:00,50.4,46.9,30.12,NE,43,6.0,9.0,82,0.00,,,0.00,meteohub,2013-05-06 14:33:00,
2013-05-06 09:39:00,50.4,47.1,30.12,NE,54,4.0,9.0,82,0.00,,,0.00,meteohub,2013-05-06 14:39:00,
2013-05-06 09:44:00,50.4,47.1,30.12,ENE,58,3.0,10.0,82,0.00,,,0.00,meteohub,2013-05-06 14:44:00,
2013-05-06 09:49:00,50.4,46.9,30.12,North,5,4.0,10.0,81,0.00,,,0.00,meteohub,2013-05-06 14:49:00,
2013-05-06 09:54:00,50.4,47.1,30.12,NNE,24,5.0,10.0,81,0.00,,,0.00,meteohub,2013-05-06 14:54:00,
2013-05-06 09:59:00,50.4,46.6,30.12,North,353,4.0,8.0,80,0.00,,,0.00,meteohub,2013-05-06 14:59:00,
2013-05-06 10:04:00,50.5,47.3,30.12,NE,46,6.0,8.0,81,0.00,,,0.00,meteohub,2013-05-06 15:04:00,
2013-05-06 10:09:00,50.5,47.3,30.12,NE,42,2.0,8.0,80,0.00,,,0.00,meteohub,2013-05-06 15:09:00,
2013-05-06 10:14:00,50.7,46.8,30.12,NNE,25,3.0,7.0,79,0.00,,,0.00,meteohub,2013-05-06 15:14:00,
2013-05-06 10:19:00,50.9,47.1,30.12,NNE,18,4.0,7.0,79,0.00,,,0.00,meteohub,2013-05-06 15:19:00,
2013-05-06 10:24:00,50.9,46.8,30.12,NNW,331,6.0,7.0,78,0.00,,,0.00,meteohub,2013-05-06 15:24:00,
2013-05-06 10:29:00,50.9,46.2,30.12,NNW,344,4.0,8.0,77,0.00,,,0.00,meteohub,2013-05-06 15:29:00,
2013-05-06 10:34:00,51.1,47.1,30.12,NNE,26,4.0,8.0,78,0.00,,,0.00,meteohub,2013-05-06 15:34:00,
2013-05-06 10:40:00,51.4,46.9,30.12,NE,51,4.0,8.0,77,0.00,,,0.00,meteohub,2013-05-06 15:40:00,
2013-05-06 10:45:00,51.6,47.1,30.12,North,4,6.0,8.0,77,0.00,,,0.00,meteohub,2013-05-06 15:45:00,
2013-05-06 10:50:00,51.8,47.7,30.12,NNE,32,8.0,8.0,77,0.00,,,0.00,meteohub,2013-05-06 15:50:00,
2013-05-06 10:55:00,52.5,48.2,30.12,NNE,30,4.0,9.0,76,0.00,,,0.00,meteohub,2013-05-06 15:55:00,
2013-05-06 11:00:00,52.5,47.5,30.12,NNE,31,6.0,9.0,74,0.00,,,0.00,meteohub,2013-05-06 16:00:00,
2013-05-06 11:05:00,52.5,47.1,30.12,NNE,19,3.0,9.0,73,0.00,,,0.00,meteohub,2013-05-06 16:05:00,
2013-05-06 11:10:00,52.3,46.8,30.12,North,357,4.0,9.0,73,0.00,,,0.00,meteohub,2013-05-06 16:10:00,
2013-05-06 11:15:00,52.5,47.5,30.12,NNE,32,4.0,9.0,73,0.00,,,0.00,meteohub,2013-05-06 16:15:00,
2013-05-06 11:20:00,53.2,48.2,30.12,NE,46,3.0,9.0,73,0.00,,,0.00,meteohub,2013-05-06 16:20:00,
2013-05-06 11:25:00,54.0,47.8,30.12,NNE,12,5.0,9.0,71,0.00,,,0.00,meteohub,2013-05-06 16:25:00,
2013-05-06 11:30:00,54.3,48.2,30.12,NNE,33,4.0,7.0,71,0.00,,,0.00,meteohub,2013-05-06 16:30:00,
2013-05-06 11:35:00,54.5,47.5,30.12,NNW,345,3.0,6.0,69,0.00,,,0.00,meteohub,2013-05-06 16:35:00,
2013-05-06 11:41:00,54.7,49.1,30.12,NNE,14,4.0,11.0,71,0.00,,,0.00,meteohub,2013-05-06 16:41:00,
2013-05-06 11:46:00,54.7,48.7,30.12,NNW,340,4.0,11.0,69,0.00,,,0.00,meteohub,2013-05-06 16:46:00,
2013-05-06 11:51:00,54.1,48.4,30.12,NNW,327,5.0,8.0,68,0.00,,,0.00,meteohub,2013-05-06 16:51:00,
2013-05-06 11:56:00,54.1,49.5,30.12,NNW,327,5.0,8.0,67,0.00,,,0.00,meteohub,2013-05-06 16:56:00,
2013-05-06 12:01:00,55.0,49.5,30.12,NNW,337,5.0,7.0,66,0.00,,,0.00,meteohub,2013-05-06 17:01:00,
2013-05-06 12:06:00,55.2,48.6,30.12,NNW,338,4.0,6.0,64,0.00,,,0.00,meteohub,2013-05-06 17:06:00,
2013-05-06 12:11:00,55.9,48.9,30.12,NW,322,5.0,7.0,63,0.00,,,0.00,meteohub,2013-05-06 17:11:00,
2013-05-06 12:16:00,56.5,46.6,30.12,WNW,290,3.0,7.0,60,0.00,,,0.00,meteohub,2013-05-06 17:16:00,
2013-05-06 12:21:00,56.8,48.2,30.12,NW,316,5.0,7.0,61,0.00,,,0.00,meteohub,2013-05-06 17:21:00,
2013-05-06 12:26:00,57.4,48.2,30.12,West,273,4.0,6.0,60,0.00,,,0.00,meteohub,2013-05-06 17:26:00,
2013-05-06 12:31:00,57.6,48.4,30.12,NNW,335,3.0,6.0,59,0.00,,,0.00,meteohub,2013-05-06 17:31:00,
2013-05-06 12:36:00,58.3,48.4,30.12,North,1,6.0,6.0,58,0.00,,,0.00,meteohub,2013-05-06 17:36:00,
2013-05-06 12:42:00,58.5,48.0,30.12,North,357,6.0,7.0,57,0.00,,,0.00,meteohub,2013-05-06 17:42:00,
2013-05-06 12:47:00,58.8,48.9,30.09,North,353,3.0,7.0,57,0.00,,,0.00,meteohub,2013-05-06 17:47:00,
2013-05-06 12:52:00,59.0,48.2,30.09,NNE,30,0.0,7.0,55,0.00,,,0.00,meteohub,2013-05-06 17:52:00,
2013-05-06 12:57:00,59.4,49.5,30.09,North,357,4.0,6.0,57,0.00,,,0.00,meteohub,2013-05-06 17:57:00,
2013-05-06 13:02:00,59.4,46.8,30.09,WNW,298,0.0,6.0,53,0.00,,,0.00,meteohub,2013-05-06 18:02:00,
2013-05-06 13:07:00,60.3,48.4,30.09,North,349,4.0,6.0,54,0.00,,,0.00,meteohub,2013-05-06 18:07:00,
2013-05-06 13:12:00,60.6,47.8,30.09,North,6,5.0,6.0,53,0.00,,,0.00,meteohub,2013-05-06 18:12:00,
2013-05-06 13:17:00,61.3,48.2,30.09,NNE,21,0.0,8.0,52,0.00,,,0.00,meteohub,2013-05-06 18:17:00,
2013-05-06 13:22:00,61.7,48.9,30.09,ENE,65,3.0,8.0,52,0.00,,,0.00,meteohub,2013-05-06 18:22:00,
2013-05-06 13:27:00,61.9,48.6,30.09,NW,313,4.0,8.0,52,0.00,,,0.00,meteohub,2013-05-06 18:27:00,
2013-05-06 13:32:00,62.4,48.7,30.09,North,7,6.0,6.0,50,0.00,,,0.00,meteohub,2013-05-06 18:32:00,
2013-05-06 13:37:00,63.0,47.5,30.09,North,350,0.0,6.0,49,0.00,,,0.00,meteohub,2013-05-06 18:37:00,
2013-05-06 13:42:00,63.0,49.3,30.09,NNW,330,0.0,6.0,51,0.00,,,0.00,meteohub,2013-05-06 18:42:00,
2013-05-06 13:47:00,63.1,48.6,30.09,North,353,0.0,6.0,50,0.00,,,0.00,meteohub,2013-05-06 18:47:00,
2013-05-06 13:52:00,63.7,48.9,30.09,NNE,32,0.0,5.0,50,0.00,,,0.00,meteohub,2013-05-06 18:52:00,
2013-05-06 13:57:00,64.2,48.7,30.09,WNW,294,0.0,4.0,50,0.00,,,0.00,meteohub,2013-05-06 18:57:00,
2013-05-06 14:02:00,65.3,47.7,30.09,West,260,0.0,4.0,48,0.00,,,0.00,meteohub,2013-05-06 19:02:00,
2013-05-06 14:07:00,65.7,48.2,30.09,NW,313,3.0,4.0,49,0.00,,,0.00,meteohub,2013-05-06 19:07:00,
2013-05-06 14:12:00,65.8,48.4,30.09,NW,311,0.0,4.0,49,0.00,,,0.00,meteohub,2013-05-06 19:12:00,
2013-05-06 14:17:00,65.8,48.7,30.06,NW,310,0.0,4.0,49,0.00,,,0.00,meteohub,2013-05-06 19:17:00,
2013-05-06 14:22:00,65.8,49.1,30.06,NW,313,4.0,4.0,49,0.00,,,0.00,meteohub,2013-05-06 19:22:00,
2013-05-06 14:27:00,66.0,49.3,30.06,NE,49,0.0,4.0,49,0.00,,,0.00,meteohub,2013-05-06 19:27:00,
2013-05-06 14:32:00,66.0,49.1,30.06,NE,54,3.0,4.0,48,0.00,,,0.00,meteohub,2013-05-06 19:32:00,
2013-05-06 14:37:00,66.0,49.6,30.06,NE,52,0.0,4.0,48,0.00,,,0.00,meteohub,2013-05-06 19:37:00,
2013-05-06 14:42:00,66.0,48.0,30.06,SSE,165,4.0,4.0,46,0.00,,,0.00,meteohub,2013-05-06 19:42:00,
2013-05-06 14:47:00,66.0,49.3,30.06,ESE,103,0.0,4.0,47,0.00,,,0.00,meteohub,2013-05-06 19:47:00,
2013-05-06 14:52:00,66.2,49.8,30.06,SSE,154,0.0,4.0,47,0.00,,,0.00,meteohub,2013-05-06 19:52:00,
2013-05-06 14:57:00,66.0,48.4,30.06,East,81,0.0,4.0,45,0.00,,,0.00,meteohub,2013-05-06 19:57:00,
2013-05-06 15:02:00,66.2,48.6,30.06,SE,133,4.0,4.0,45,0.00,,,0.00,meteohub,2013-05-06 20:02:00,
2013-05-06 15:07:00,66.2,49.1,30.06,North,4,3.0,4.0,46,0.00,,,0.00,meteohub,2013-05-06 20:07:00,
2013-05-06 15:12:00,66.4,50.2,30.06,North,5,0.0,6.0,47,0.00,,,0.00,meteohub,2013-05-06 20:12:00,
2013-05-06 15:17:00,66.7,49.3,30.06,North,353,0.0,6.0,46,0.00,,,0.00,meteohub,2013-05-06 20:17:00,
2013-05-06 15:22:00,66.7,48.6,30.04,East,80,0.0,6.0,45,0.00,,,0.00,meteohub,2013-05-06 20:22:00,
2013-05-06 15:27:00,66.7,49.5,30.04,East,91,3.0,6.0,45,0.00,,,0.00,meteohub,2013-05-06 20:27:00,
2013-05-06 15:32:00,66.7,47.8,30.04,SE,130,2.0,6.0,43,0.00,,,0.00,meteohub,2013-05-06 20:32:00,
2013-05-06 15:37:00,66.6,47.3,30.04,SSE,151,4.0,5.0,44,0.00,,,0.00,meteohub,2013-05-06 20:37:00,
2013-05-06 15:42:00,66.2,47.3,30.04,SSE,148,4.0,6.0,44,0.00,,,0.00,meteohub,2013-05-06 20:42:00,
2013-05-06 15:47:00,66.2,49.5,30.04,NNE,23,4.0,6.0,46,0.00,,,0.00,meteohub,2013-05-06 20:47:00,
2013-05-06 15:52:00,66.6,49.5,30.04,East,88,4.0,6.0,45,0.00,,,0.00,meteohub,2013-05-06 20:52:00,
2013-05-06 15:57:00,66.9,50.0,30.04,NE,51,0.0,6.0,45,0.00,,,0.00,meteohub,2013-05-06 20:57:00,
2013-05-06 16:02:00,66.9,48.0,30.04,NE,56,0.0,6.0,44,0.00,,,0.00,meteohub,2013-05-06 21:02:00,
2013-05-06 16:07:00,66.7,48.4,30.04,NE,56,0.0,6.0,44,0.00,,,0.00,meteohub,2013-05-06 21:07:00,
2013-05-06 16:12:00,66.9,49.8,30.04,NE,56,0.0,0.0,45,0.00,,,0.00,meteohub,2013-05-06 21:12:00,
2013-05-06 16:17:00,67.3,49.1,30.04,NE,49,0.0,0.0,44,0.00,,,0.00,meteohub,2013-05-06 21:17:00,
2013-05-06 16:22:00,67.3,48.9,30.04,North,7,0.0,4.0,43,0.00,,,0.00,meteohub,2013-05-06 21:22:00,
2013-05-06 16:27:00,67.3,49.3,30.04,North,7,0.0,4.0,44,0.00,,,0.00,meteohub,2013-05-06 21:27:00,
2013-05-06 16:32:00,67.6,49.3,30.04,NW,316,0.0,4.0,44,0.00,,,0.00,meteohub,2013-05-06 21:32:00,
2013-05-06 16:37:00,67.8,48.9,30.01,NW,315,0.0,3.0,43,0.00,,,0.00,meteohub,2013-05-06 21:37:00,
2013-05-06 16:42:00,67.6,48.9,30.01,NW,315,0.0,0.0,43,0.00,,,0.00,meteohub,2013-05-06 21:42:00,
2013-05-06 16:47:00,67.8,48.7,30.01,WNW,293,0.0,0.0,43,0.00,,,0.00,meteohub,2013-05-06 21:47:00,
2013-05-06 16:52:00,68.0,48.2,30.01,West,279,0.0,4.0,43,0.00,,,0.00,meteohub,2013-05-06 21:52:00,
2013-05-06 16:57:00,67.8,47.1,30.01,South,186,2.0,4.0,42,0.00,,,0.00,meteohub,2013-05-06 21:57:00,
2013-05-06 17:02:00,67.5,47.1,30.01,SSE,165,4.0,6.0,42,0.00,,,0.00,meteohub,2013-05-06 22:02:00,
2013-05-06 17:07:00,67.3,47.5,30.01,SSE,153,0.0,6.0,42,0.00,,,0.00,meteohub,2013-05-06 22:07:00,
2013-05-06 17:12:00,67.6,48.0,30.01,SW,221,0.0,6.0,43,0.00,,,0.00,meteohub,2013-05-06 22:12:00,
2013-05-06 17:17:00,67.6,48.7,30.01,SW,221,0.0,4.0,43,0.00,,,0.00,meteohub,2013-05-06 22:17:00,
2013-05-06 17:22:00,67.6,47.5,30.01,SSE,159,2.0,4.0,42,0.00,,,0.00,meteohub,2013-05-06 22:22:00,
2013-05-06 17:27:00,67.8,48.0,30.01,SSE,159,0.0,4.0,42,0.00,,,0.00,meteohub,2013-05-06 22:27:00,
2013-05-06 17:32:00,67.6,49.1,30.01,NW,320,0.0,5.0,43,0.00,,,0.00,meteohub,2013-05-06 22:32:00,
2013-05-06 17:37:00,67.5,48.4,30.01,North,11,3.0,5.0,42,0.00,,,0.00,meteohub,2013-05-06 22:37:00,
2013-05-06 17:42:00,67.5,48.2,30.01,North,10,0.0,5.0,42,0.00,,,0.00,meteohub,2013-05-06 22:42:00,
2013-05-06 17:47:00,67.3,48.9,30.01,North,9,0.0,4.0,43,0.00,,,0.00,meteohub,2013-05-06 22:47:00,
2013-05-06 17:52:00,67.1,49.5,30.01,North,9,0.0,4.0,44,0.00,,,0.00,meteohub,2013-05-06 22:52:00,
2013-05-06 17:57:00,67.3,48.9,30.01,North,9,0.0,0.0,43,0.00,,,0.00,meteohub,2013-05-06 22:57:00,
2013-05-06 18:02:00,67.3,48.9,30.01,North,9,0.0,0.0,43,0.00,,,0.00,meteohub,2013-05-06 23:02:00,
2013-05-06 18:07:00,67.5,48.9,30.01,North,9,0.0,0.0,43,0.00,,,0.00,meteohub,2013-05-06 23:07:00,
2013-05-06 18:12:00,67.5,50.0,30.01,North,9,0.0,0.0,45,0.00,,,0.00,meteohub,2013-05-06 23:12:00,
2013-05-06 18:17:00,67.3,48.7,30.01,North,4,0.0,0.0,43,0.00,,,0.00,meteohub,2013-05-06 23:17:00,
2013-05-06 18:22:00,67.5,49.3,30.01,North,4,0.0,3.0,44,0.00,,,0.00,meteohub,2013-05-06 23:22:00,
2013-05-06 18:27:00,67.5,48.2,30.01,North,2,0.0,4.0,43,0.00,,,0.00,meteohub,2013-05-06 23:27:00,
2013-05-06 18:32:00,67.1,48.6,30.01,North,2,3.0,5.0,44,0.00,,,0.00,meteohub,2013-05-06 23:32:00,
2013-05-06 18:37:00,66.7,49.1,30.01,North,2,0.0,5.0,45,0.00,,,0.00,meteohub,2013-05-06 23:37:00,
2013-05-06 18:42:00,66.6,49.8,30.01,North,2,0.0,4.0,46,0.00,,,0.00,meteohub,2013-05-06 23:42:00,
2013-05-06 18:47:00,66.6,48.7,30.01,North,2,0.0,4.0,44,0.00,,,0.00,meteohub,2013-05-06 23:47:00,
2013-05-06 18:52:00,66.6,48.4,30.01,North,2,0.0,0.0,44,0.00,,,0.00,meteohub,2013-05-06 23:52:00,
2013-05-06 18:57:00,66.6,48.6,30.01,North,2,0.0,0.0,44,0.00,,,0.00,meteohub,2013-05-06 23:57:00,
2013-05-06 19:02:00,66.7,48.2,30.01,NE,39,0.0,3.0,44,0.00,,,0.00,meteohub,2013-05-07 00:02:00,
2013-05-06 19:07:00,66.9,48.6,30.01,NE,51,3.0,3.0,44,0.00,,,0.00,meteohub,2013-05-07 00:07:00,
2013-05-06 19:12:00,67.1,48.0,30.01,NE,51,0.0,6.0,43,0.00,,,0.00,meteohub,2013-05-07 00:12:00,
2013-05-06 19:17:00,67.3,47.7,30.01,NE,51,2.0,6.0,43,0.00,,,0.00,meteohub,2013-05-07 00:17:00,
2013-05-06 19:22:00,67.1,46.6,30.01,SSE,160,4.0,5.0,43,0.00,,,0.00,meteohub,2013-05-07 00:22:00,
2013-05-06 19:27:00,66.9,46.4,30.01,SSE,160,3.0,6.0,43,0.00,,,0.00,meteohub,2013-05-07 00:27:00,
2013-05-06 19:32:00,66.7,46.2,30.01,SSE,165,3.0,6.0,44,0.00,,,0.00,meteohub,2013-05-07 00:32:00,
2013-05-06 19:37:00,66.6,46.8,30.01,SSE,165,4.0,6.0,45,0.00,,,0.00,meteohub,2013-05-07 00:37:00,
2013-05-06 19:42:00,66.6,47.1,30.01,SSE,155,4.0,6.0,46,0.00,,,0.00,meteohub,2013-05-07 00:42:00,
2013-05-06 19:47:00,66.4,46.4,30.01,SSE,155,3.0,6.0,45,0.00,,,0.00,meteohub,2013-05-07 00:47:00,
2013-05-06 19:52:00,66.4,46.9,30.01,SSE,155,2.0,6.0,46,0.00,,,0.00,meteohub,2013-05-07 00:52:00,
2013-05-06 19:57:00,66.2,47.3,30.01,SSE,159,0.0,5.0,47,0.00,,,0.00,meteohub,2013-05-07 00:57:00,
2013-05-06 20:02:00,66.0,46.6,30.01,SSE,154,4.0,4.0,46,0.00,,,0.00,meteohub,2013-05-07 01:02:00,
2013-05-06 20:07:00,65.8,47.5,30.01,South,174,3.0,4.0,48,0.00,,,0.00,meteohub,2013-05-07 01:07:00,
2013-05-06 20:12:00,65.7,47.3,30.01,South,174,0.0,4.0,48,0.00,,,0.00,meteohub,2013-05-07 01:12:00,
2013-05-06 20:17:00,65.7,47.3,30.01,South,174,0.0,4.0,48,0.00,,,0.00,meteohub,2013-05-07 01:17:00,
2013-05-06 20:23:00,65.5,47.1,30.01,South,174,0.0,4.0,48,0.00,,,0.00,meteohub,2013-05-07 01:23:00,
2013-05-06 20:28:00,65.5,46.9,30.01,South,174,0.0,3.0,48,0.00,,,0.00,meteohub,2013-05-07 01:28:00,
2013-05-06 20:33:00,65.3,46.8,30.01,South,174,0.0,0.0,48,0.00,,,0.00,meteohub,2013-05-07 01:33:00,
2013-05-06 20:38:00,65.3,46.6,30.01,South,174,0.0,0.0,48,0.00,,,0.00,meteohub,2013-05-07 01:38:00,
2013-05-06 20:43:00,65.1,46.9,30.01,South,173,0.0,0.0,49,0.00,,,0.00,meteohub,2013-05-07 01:43:00,
2013-05-06 20:48:00,64.8,47.5,30.01,South,173,0.0,0.0,51,0.00,,,0.00,meteohub,2013-05-07 01:48:00,
2013-05-06 20:53:00,64.0,47.7,30.01,South,173,0.0,0.0,52,0.00,,,0.00,meteohub,2013-05-07 01:53:00,
2013-05-06 20:58:00,63.5,47.5,30.01,South,173,0.0,0.0,52,0.00,,,0.00,meteohub,2013-05-07 01:58:00,
2013-05-06 21:03:00,63.1,47.7,30.01,SSE,165,2.0,0.0,53,0.00,,,0.00,meteohub,2013-05-07 02:03:00,
2013-05-06 21:08:00,62.8,48.0,30.01,SSE,162,0.0,4.0,54,0.00,,,0.00,meteohub,2013-05-07 02:08:00,
2013-05-06 21:13:00,62.6,48.4,30.01,SSE,162,0.0,4.0,55,0.00,,,0.00,meteohub,2013-05-07 02:13:00,
2013-05-06 21:18:00,62.4,48.2,30.01,SSE,162,0.0,4.0,55,0.00,,,0.00,meteohub,2013-05-07 02:18:00,
2013-05-06 21:24:00,62.2,48.2,30.01,SSE,162,0.0,3.0,55,0.00,,,0.00,meteohub,2013-05-07 02:24:00,
2013-05-06 21:29:00,62.2,48.6,30.01,SSE,162,0.0,0.0,56,0.00,,,0.00,meteohub,2013-05-07 02:29:00,
2013-05-06 21:34:00,62.2,48.4,30.04,SSE,162,0.0,0.0,56,0.00,,,0.00,meteohub,2013-05-07 02:34:00,
2013-05-06 21:39:00,62.1,49.1,30.04,SSE,162,0.0,0.0,58,0.00,,,0.00,meteohub,2013-05-07 02:39:00,
2013-05-06 21:44:00,61.9,48.9,30.04,SSE,162,0.0,0.0,58,0.00,,,0.00,meteohub,2013-05-07 02:44:00,
2013-05-06 21:49:00,61.9,49.3,30.04,SSE,162,0.0,0.0,59,0.00,,,0.00,meteohub,2013-05-07 02:49:00,
2013-05-06 21:54:00,61.7,49.1,30.04,SSE,162,0.0,0.0,59,0.00,,,0.00,meteohub,2013-05-07 02:54:00,
2013-05-06 21:59:00,61.7,49.6,30.04,SSE,162,0.0,0.0,61,0.00,,,0.00,meteohub,2013-05-07 02:59:00,
2013-05-06 22:04:00,61.2,49.8,30.04,SSE,162,0.0,0.0,62,0.00,,,0.00,meteohub,2013-05-07 03:04:00,
2013-05-06 22:09:00,60.8,49.8,30.04,SSE,162,0.0,0.0,63,0.00,,,0.00,meteohub,2013-05-07 03:09:00,
2013-05-06 22:14:00,60.4,49.6,30.04,SSE,162,0.0,0.0,63,0.00,,,0.00,meteohub,2013-05-07 03:14:00,
2013-05-06 22:19:00,59.9,50.0,30.04,SSE,162,0.0,0.0,64,0.00,,,0.00,meteohub,2013-05-07 03:19:00,
2013-05-06 22:24:00,59.7,49.8,30.04,SSE,162,0.0,0.0,64,0.00,,,0.00,meteohub,2013-05-07 03:24:00,
2013-05-06 22:30:00,59.4,49.8,30.04,SSE,162,0.0,0.0,65,0.00,,,0.00,meteohub,2013-05-07 03:30:00,
2013-05-06 22:35:00,59.2,49.8,30.04,SSE,162,0.0,0.0,66,0.00,,,0.00,meteohub,2013-05-07 03:35:00,
2013-05-06 22:40:00,58.8,50.0,30.04,SSE,162,0.0,0.0,67,0.00,,,0.00,meteohub,2013-05-07 03:40:00,
2013-05-06 22:45:00,58.5,50.4,30.04,SSE,162,0.0,0.0,68,0.00,,,0.00,meteohub,2013-05-07 03:45:00,
2013-05-06 22:50:00,58.3,50.2,30.04,SSE,162,0.0,0.0,68,0.00,,,0.00,meteohub,2013-05-07 03:50:00,
2013-05-06 22:55:00,58.1,50.0,30.04,SSE,162,0.0,0.0,68,0.00,,,0.00,meteohub,2013-05-07 03:55:00,
2013-05-06 23:00:00,57.7,50.2,30.04,SSE,162,0.0,0.0,69,0.00,,,0.00,meteohub,2013-05-07 04:00:00,
2013-05-06 23:01:00,57.6,50.0,30.04,SSE,162,0.0,0.0,69,0.00,,,0.00,meteohub,2013-05-07 04:01:00,
2013-05-06 23:02:00,57.6,50.0,30.04,SSE,162,0.0,0.0,69,0.00,,,0.00,meteohub,2013-05-07 04:02:00,
2013-05-06 23:03:00,57.6,50.0,30.04,SSE,162,0.0,0.0,69,0.00,,,0.00,meteohub,2013-05-07 04:03:00,
2013-05-06 23:04:00,57.4,50.0,30.04,SSE,162,0.0,0.0,69,0.00,,,0.00,meteohub,2013-05-07 04:04:00,
2013-05-06 23:09:00,57.2,50.2,30.04,SSE,162,0.0,0.0,70,0.00,,,0.00,meteohub,2013-05-07 04:09:00,
2013-05-06 23:14:00,56.8,49.8,30.04,SSE,162,0.0,0.0,69,0.00,,,0.00,meteohub,2013-05-07 04:14:00,
2013-05-06 23:19:00,56.8,49.8,30.04,SSE,162,0.0,0.0,69,0.00,,,0.00,meteohub,2013-05-07 04:19:00,
2013-05-06 23:24:00,56.7,49.6,30.04,SSE,162,0.0,0.0,69,0.00,,,0.00,meteohub,2013-05-07 04:24:00,
2013-05-06 23:29:00,56.5,49.5,30.04,SSE,162,0.0,0.0,69,0.00,,,0.00,meteohub,2013-05-07 04:29:00,
2013-05-06 23:34:00,56.3,49.5,30.04,SSE,162,0.0,0.0,69,0.00,,,0.00,meteohub,2013-05-07 04:34:00,
2013-05-06 23:39:00,56.3,49.6,30.04,SSE,162,0.0,0.0,70,0.00,,,0.00,meteohub,2013-05-07 04:39:00,
2013-05-06 23:44:00,55.9,49.6,30.04,SSE,162,0.0,0.0,71,0.00,,,0.00,meteohub,2013-05-07 04:44:00,
2013-05-06 23:49:00,55.9,49.8,30.04,SSE,162,0.0,0.0,72,0.00,,,0.00,meteohub,2013-05-07 04:49:00,
2013-05-06 23:54:00,55.6,49.6,30.04,SSE,162,0.0,0.0,73,0.00,,,0.00,meteohub,2013-05-07 04:54:00,
2013-05-06 23:59:00,55.2,50.0,30.04,SSE,162,0.0,0.0,74,0.00,,,0.00,meteohub,2013-05-07 04:59:00,